Find Starlink 2666

NORAD ID: 48666 Int'l Des: 2021-044 Owner: SPXS Country: US Constellation: starlink operational
LEOCIRCULARSTARLINK_TYPE

現在のビュー

3D地球を読み込み中...

About Starlink 2666

Starlink 2666 (NORAD 48666) is a starlink constellation satellite (v1.0) launched May 26, 2021 by SPXS of US. It operates in LEO, CIRCULAR, STARLINK_TYPE orbit with a mass of 260.00 kg.

Starlink 2666について

説明を読み込み中...

次回通過

Passes for default location (London). Set your location on the main map for personalized predictions.

高度履歴

Loading altitude history...

軌道要素

1 48666U 21044AE 26167.29697948 .00003641 00000-0 13846-3 0 9996
2 48666 53.1598 16.0687 0000843 88.3646 271.7450 15.29347615278906
Epoch: Jun 16, 2026 • Age: 6 hours

現在のステータス

高度 478.3 km
速度 7.63 km/s
衛星直下点 3.16°N, 88.9°W
打ち上げ日 May 26, 2021
運用期間 5 years
タイプ internet

技術仕様

分類 Payload
質量 260.00 kg
乾燥質量 248.00 kg
総質量 260.00 kg
長さ 0.20 m
直径 2.80 m
スパン 9.00 m
形状 Box + pan
製造者 SPXS
バスタイプ Starlink
フェーズステータス In Orbit
所有者/国 SPXS/US

Most Searched